Location: Boston
(42.3580°N, 71.0600°W)
Time: 15:22:20
(UTC-05:00)

OTV 5 (USA 277) - Pass Details

Date: 12 October 2017
Orbit: 404 x 417 km, 43.0° (Epoch: 07 September)

Event Time Altitude Azimuth Distance (km) Brightness Sun altitude
Rises 19:38:40 0° 255° (WSW) 2,350 ? -17.8°
Reaches altitude 10° 19:40:46 10° 254° (WSW) 1,489 ? -18.2°
Maximum altitude 19:44:08 80° 168° (SSE) 426 ? -18.8°
Enters shadow 19:44:25 71° 108° (ESE) 442 ? -18.8°
